CW9927 Weather Reports


time (UTC)temp
C
wind
direction
speed
KPH
gust
KPH
rain 1hr
cm
rain 24hr
cm
rain mn
cm
humidity
%
barometer
mb
20260902063418 13 0.0 0.0 0.00 0.00 0.00 86 1017.7
20260902062456 13 0.0 0.0 0.00 0.00 0.00 86 1017.7
20260902061418 13 0.0 0.0 0.00 0.00 0.00 85 1017.7
20260902060415 13 0.0 0.0 0.00 0.00 0.00 85 1017.9
20260902055417 13 0.0 0.0 0.00 0.00 0.00 84 1017.9
20260902054418 13 0.0 0.0 0.00 0.00 0.00 84 1017.9
20260902053417 14 0.0 0.0 0.00 0.00 0.00 84 1018.1
20260902052437 14 0.0 0.0 0.00 0.00 0.00 84 1018.1
20260902051417 14 0.0 0.0 0.00 0.00 0.00 84 1018.1
20260902050417 15 0.0 0.0 0.00 0.00 0.00 84 1018.2
20260902045418 15 0.0 0.0 0.00 0.00 0.00 84 1018.1
20260902044418 15 0.0 0.0 0.00 0.00 0.00 84 1018.1
20260902043418 15 0.0 0.0 0.00 0.00 0.00 84 1018.0
20260902042418 15 0.0 0.0 0.00 0.00 0.00 83 1018.0
20260902041418 15 0.0 0.0 0.00 0.00 0.00 83 1017.8
20260902040417 15 0.0 0.0 0.00 0.00 0.00 82 1017.8
20260902035418 15 0.0 0.0 0.00 0.00 0.00 81 1017.6
20260902034441 15 0.0 0.0 0.00 0.00 0.00 80 1017.4
20260902033417 16 0.0 0.0 0.00 0.00 0.00 79 1017.3
20260902032419 16 0.0 0.0 0.00 0.00 0.00 78 1017.2
20260902031417 16 0.0 0.0 0.00 0.00 0.00 77 1017.1
20260902030417 16 0.0 0.0 0.00 0.00 0.00 76 1017.0
20260902025435 16 0.0 0.0 0.00 0.00 0.00 75 1016.8
20260902024438 16 0.0 0.0 0.00 0.00 0.00 75 1016.5
20260902023417 16 0.0 0.0 0.00 0.00 0.00 73 1016.4
20260902022438 17 0.0 0.0 0.00 0.00 0.00 71 1016.4
20260902021438 17 0.0 0.0 0.00 0.00 0.00 69 1016.3
20260902020438 18 0.0 0.0 0.00 0.00 0.00 67 1016.3
20260902015418 18 0.0 0.0 0.00 0.00 0.00 66 1016.2
20260902014418 18 270 1.6 9.7 0.00 0.00 0.00 65 1016.1
20260902013417 18 225 3.2 14.5 0.00 0.00 0.00 64 1016.2
20260902012437 19 0.0 0.0 0.00 0.00 0.00 64 1016.0
20260902011437 19 0.0 0.0 0.00 0.00 0.00 62 1016.1
20260902010508 19 0.0 0.0 0.00 0.00 0.00 62 1016.0
20260902010348 19 0.0 0.0 0.00 0.00 0.00 62 1016.0
20260902005137 20 225 4.8 24.1 0.00 0.00 0.00 61 1015.9
20260902004138 20 0.0 1.6 0.00 0.00 0.00 61 1015.9
20260902003117 20 0.0 4.8 0.00 0.00 0.00 60 1015.8
20260902002117 20 225 11.3 22.5 0.00 0.00 0.00 59 1015.7
20260902001117 21 270 12.9 25.7 0.00 0.00 0.00 58 1015.8
20260902000118 21 270 8.0 14.5 0.00 0.00 0.00 56 1015.8
20260901235117 21 225 4.8 17.7 0.00 0.00 0.00 56 1015.7
20260901234117 22 248 3.2 11.3 0.00 0.00 0.00 56 1015.8
20260901233138 22 0.0 1.6 0.00 0.00 0.00 55 1015.8
20260901232117 22 0.0 0.0 0.00 0.00 0.00 54 1015.9
20260901231117 22 0.0 0.0 0.00 0.00 0.00 54 1016.0
20260901230138 22 0.0 0.0 0.00 0.00 0.00 54 1016.1
20260901225116 22 225 4.8 16.1 0.00 0.00 0.00 53 1016.2
20260901224116 22 0.0 0.0 0.00 0.00 0.00 53 1016.0
20260901223116 22 0.0 0.0 0.00 0.00 0.00 52 1016.1
20260901222116 22 0.0 0.0 0.00 0.00 0.00 51 1016.2
20260901221116 22 0.0 0.0 0.00 0.00 0.00 52 1016.2
20260901220116 22 0.0 0.0 0.00 0.00 0.00 52 1016.3
20260901215116 22 0.0 0.0 0.00 0.00 0.00 52 1016.4
20260901214116 22 0.0 0.0 0.00 0.00 0.00 53 1016.4
20260901213136 22 248 6.4 16.1 0.00 0.00 0.00 54 1016.5
20260901212157 22 0.0 0.0 0.00 0.00 0.00 55 1016.3
20260901211116 22 0.0 0.0 0.00 0.00 0.00 53 1016.3
20260901210116 23 0.0 0.0 0.00 0.00 0.00 53 1016.5
20260901205116 22 0.0 0.0 0.00 0.00 0.00 49 1016.5
20260901204116 22 0.0 0.0 0.00 0.00 0.00 49 1016.5
20260901203116 22 0.0 0.0 0.00 0.00 0.00 50 1016.6
20260901202116 22 0.0 0.0 0.00 0.00 0.00 52 1016.7
20260901201116 21 0.0 0.0 0.00 0.00 0.00 52 1016.9
20260901200116 21 0.0 0.0 0.00 0.00 0.00 54 1016.9
20260901195116 21 0.0 0.0 0.00 0.00 0.00 54 1017.1
20260901194136 21 0.0 0.0 0.00 0.00 0.00 53 1017.2
20260901193118 21 0.0 0.0 0.00 0.00 0.00 52 1017.4
20260901192116 21 0.0 0.0 0.00 0.00 0.00 54 1017.3
20260901191116 21 0.0 0.0 0.00 0.00 0.00 56 1017.4
20260901185117 20 0.0 0.0 0.00 0.00 0.00 57 1017.5
20260901184117 20 0.0 0.0 0.00 0.00 0.00 56 1017.5
20260901183117 20 0.0 0.0 0.00 0.00 0.00 55 1017.4
20260901182122 20 0.0 0.0 0.00 0.00 0.00 58 1017.5
20260901181117 19 0.0 0.0 0.00 0.00 0.00 57 1017.5
20260901180119 20 0.0 0.0 0.00 0.00 0.00 58 1017.6
20260901175117 18 0.0 0.0 0.00 0.00 0.00 60 1017.6
20260901174117 18 0.0 0.0 0.00 0.00 0.00 60 1017.6
20260901173117 18 0.0 0.0 0.00 0.00 0.00 60 1017.5
20260901172137 18 0.0 0.0 0.00 0.00 0.00 60 1017.4
20260901171117 17 0.0 0.0 0.00 0.00 0.00 63 1017.5
20260901170137 17 0.0 0.0 0.00 0.00 0.00 64 1017.7
20260901165117 17 0.0 0.0 0.00 0.00 0.00 67 1017.7
20260901164137 17 0.0 0.0 0.00 0.00 0.00 68 1017.6
20260901163117 17 0.0 0.0 0.00 0.00 0.00 69 1017.4
20260901162137 16 0.0 0.0 0.00 0.00 0.00 69 1017.2
20260901161117 16 0.0 0.0 0.00 0.00 0.00 69 1017.1
20260901160118 16 0.0 0.0 0.00 0.00 0.00 69 1017.1
20260901155117 16 0.0 0.0 0.00 0.00 0.00 69 1017.1
20260901154119 16 0.0 0.0 0.00 0.00 0.00 70 1017.1
20260901153117 16 0.0 0.0 0.00 0.00 0.00 70 1017.1
20260901152118 16 0.0 0.0 0.00 0.00 0.00 70 1016.9
20260901151118 16 0.0 0.0 0.00 0.00 0.00 71 1016.8
20260901150137 16 0.0 0.0 0.00 0.00 0.00 71 1016.8
20260901145117 15 0.0 0.0 0.00 0.00 0.00 72 1016.8
20260901144117 15 0.0 0.0 0.00 0.00 0.00 72 1016.6
20260901143157 15 0.0 0.0 0.00 0.00 0.00 73 1016.4
20260901142137 15 0.0 0.0 0.00 0.00 0.00 74 1016.2
20260901141117 15 0.0 0.0 0.00 0.00 0.00 74 1016.1
20260901140117 15 0.0 0.0 0.00 0.00 0.00 74 1016.0
20260901135137 15 0.0 0.0 0.00 0.00 0.00 74 1016.0
20260901134117 15 0.0 0.0 0.00 0.00 0.00 74 1015.9
20260901133137 15 0.0 0.0 0.00 0.00 0.00 75 1015.7
20260901132117 15 0.0 0.0 0.00 0.00 0.00 75 1015.7
20260901131137 15 0.0 0.0 0.00 0.00 0.00 75 1015.6
20260901125016 14 0.0 0.0 0.00 0.00 0.00 77 1015.5
20260901124016 14 0.0 0.0 0.00 0.00 0.00 77 1015.6
20260901123016 15 0.0 0.0 0.00 0.00 0.00 77 1015.5
20260901122017 15 0.0 0.0 0.00 0.00 0.00 77 1015.5
20260901121017 15 0.0 0.0 0.00 0.00 0.00 78 1015.6
20260901120036 15 0.0 0.0 0.00 0.00 0.00 78 1015.7
20260901115016 15 0.0 0.0 0.00 0.00 0.00 77 1015.7
20260901114157 15 0.0 0.0 0.00 0.00 0.00 78 1015.6
20260901113016 15 0.0 0.0 0.00 0.00 0.00 79 1015.6
20260901112016 15 0.0 0.0 0.00 0.00 0.00 79 1015.6
20260901111016 15 0.0 0.0 0.00 0.00 0.00 79 1015.5
20260901110117 15 0.0 0.0 0.00 0.00 0.00 79 1015.4
20260901105117 15 0.0 0.0 0.00 0.00 0.00 80 1015.3
20260901104138 15 0.0 0.0 0.00 0.00 0.00 80 1015.1
20260901103117 15 0.0 0.0 0.00 0.00 0.00 80 1015.1
20260901102141 15 0.0 0.0 0.00 0.00 0.00 80 1015.1
20260901101117 15 0.0 0.0 0.00 0.00 0.00 81 1015.1
20260901100240 15 0.0 0.0 0.00 0.00 0.00 81 1015.0
20260901095117 15 0.0 0.0 0.00 0.00 0.00 81 1015.0
20260901094117 15 0.0 0.0 0.00 0.00 0.00 82 1015.1
20260901093117 15 0.0 0.0 0.00 0.00 0.00 82 1014.9
20260901092137 15 0.0 0.0 0.00 0.00 0.00 83 1014.9
20260901091119 15 0.0 0.0 0.00 0.00 0.00 83 1015.0
20260901090137 15 0.0 0.0 0.00 0.00 0.00 83 1015.0
20260901085137 15 0.0 0.0 0.00 0.00 0.00 84 1015.0
20260901084117 15 0.0 0.0 0.00 0.00 0.00 84 1015.0
20260901083119 15 0.0 0.0 0.00 0.00 0.00 84 1015.2
20260901082117 15 0.0 0.0 0.00 0.00 0.00 84 1015.2
20260901081117 15 0.0 0.0 0.00 0.00 0.00 84 1015.1
20260901080119 15 0.0 0.0 0.00 0.00 0.00 84 1015.1
20260901075117 15 0.0 0.0 0.00 0.00 0.00 84 1015.0
20260901074117 15 0.0 0.0 0.00 0.00 0.00 84 1015.1
20260901073117 15 0.0 0.0 0.00 0.00 0.00 84 1015.1
20260901072117 15 0.0 0.0 0.00 0.00 0.00 84 1015.1
20260901071117 15 0.0 0.0 0.00 0.00 0.00 84 1015.1
20260901065117 15 0.0 0.0 0.00 0.00 0.00 84 1015.3
20260901064116 15 0.0 0.0 0.00 0.00 0.00 85 1015.1